EW0139 Weather Reports


time (UTC)temp
C
wind
direction
speed
KPH
gust
KPH
rain 1hr
cm
rain 24hr
cm
rain mn
cm
humidity
%
barometer
mb
20260507174756 13 293 12.9 16.1 0.00 0.00 0.00 30 1009.9
20260507173741 13 277 1.6 8.0 0.00 0.00 0.00 29 1010.0
20260507172742 13 260 9.7 16.1 0.00 0.00 0.00 30 1010.1
20260507171744 13 238 0.0 12.9 0.00 0.00 0.00 29 1010.2
20260507170810 13 181 3.2 8.0 0.00 0.00 0.00 31 1009.4
20260507165751 12 263 14.5 14.5 0.00 0.00 0.00 31 1009.5
20260507164753 13 267 6.4 11.3 0.00 0.00 0.00 30 1009.6
20260507163753 12 50 1.6 6.4 0.00 0.00 0.00 32 1009.6
20260507162753 12 86 0.0 8.0 0.00 0.00 0.00 31 1009.7
20260507161818 12 86 4.8 4.8 0.00 0.00 0.00 32 1009.5
20260507160756 11 86 1.6 9.7 0.00 0.00 0.00 32 1009.6
20260507155740 10 156 0.0 9.7 0.00 0.00 0.00 32 1009.7
20260507154739 11 161 8.0 14.5 0.00 0.00 0.00 31 1009.6
20260507153747 10 123 9.7 16.1 0.00 0.00 0.00 32 1009.6
20260507152748 10 138 9.7 12.9 0.00 0.00 0.00 33 1009.6
20260507151748 10 132 3.2 11.3 0.00 0.00 0.00 34 1009.7
20260507150750 9 124 6.4 11.3 0.00 0.00 0.00 33 1009.8
20260507145754 9 114 6.4 11.3 0.00 0.00 0.00 35 1009.7
20260507144757 8 122 4.8 12.9 0.00 0.00 0.00 36 1009.7
20260507143757 7 99 6.4 14.5 0.00 0.00 0.00 36 1009.7
20260507142757 7 111 9.7 16.1 0.00 0.00 0.00 35 1009.7
20260507141740 7 114 9.7 12.9 0.00 0.00 0.00 36 1009.8
20260507140803 6 94 9.7 16.1 0.00 0.00 0.00 37 1009.7
20260507135742 6 82 3.2 11.3 0.00 0.00 0.00 38 1009.7
20260507134743 6 82 8.0 14.5 0.00 0.00 0.00 38 1009.5
20260507133744 5 67 3.2 8.0 0.00 0.00 0.00 43 1009.4
20260507132748 4 33 6.4 9.7 0.00 0.00 0.00 43 1009.4
20260507131750 3 30 8.0 9.7 0.00 0.00 0.00 42 1009.6
20260507130751 3 45 8.0 9.7 0.00 0.00 0.00 44 1009.5
20260507125753 2 37 6.4 11.3 0.00 0.00 0.00 44 1009.6
20260507124740 2 38 6.4 17.7 0.00 0.00 0.00 44 1009.4
20260507123741 2 47 14.5 17.7 0.00 0.00 0.00 45 1009.3
20260507122740 1 42 9.7 17.7 0.00 0.00 0.00 45 1009.2
20260507121800 1 57 9.7 17.7 0.00 0.00 0.00 45 1009.2
20260507120745 1 22 12.9 17.7 0.00 0.00 0.00 45 1009.1
20260507115745 1 13 6.4 16.1 0.00 0.00 0.00 46 1009.0
20260507114746 1 28 9.7 16.1 0.00 0.00 0.00 46 1009.0
20260507113744 1 37 8.0 16.1 0.00 0.00 0.00 46 1009.0
20260507112805 1 41 11.3 17.7 0.00 0.00 0.00 45 1009.0
20260507111747 2 36 14.5 19.3 0.00 0.00 0.00 43 1009.1
20260507110750 1 47 12.9 19.3 0.00 0.00 0.00 44 1009.0
20260507105810 1 42 11.3 14.5 0.00 0.00 0.00 45 1009.2
20260507104811 2 39 14.5 16.1 0.00 0.00 0.00 45 1009.2
20260507103751 2 40 8.0 16.1 0.00 0.00 0.00 44 1009.3
20260507102812 2 32 4.8 14.5 0.00 0.00 0.00 45 1009.4
20260507101754 2 30 8.0 16.1 0.00 0.00 0.00 45 1009.4
20260507100754 2 35 6.4 11.3 0.00 0.00 0.00 44 1009.5
20260507095753 2 33 6.4 11.3 0.00 0.00 0.00 43 1009.6
20260507094755 2 30 6.4 12.9 0.00 0.00 0.00 43 1009.8
20260507093803 2 28 6.4 11.3 0.00 0.00 0.00 44 1009.8
20260507092802 2 23 3.2 9.7 0.00 0.00 0.00 45 1009.5
20260507091742 2 21 0.0 8.0 0.00 0.00 0.00 46 1009.5
20260507090742 2 33 9.7 9.7 0.00 0.00 0.00 44 1009.6
20260507085742 3 34 9.7 14.5 0.00 0.00 0.00 44 1009.7
20260507084748 3 40 8.0 12.9 0.00 0.00 0.00 44 1008.7
20260507083749 3 37 9.7 16.1 0.00 0.00 0.00 44 1008.8
20260507082750 3 29 8.0 11.3 0.00 0.00 0.00 44 1008.8
20260507081749 3 36 6.4 9.7 0.00 0.00 0.00 46 1008.9
20260507080750 3 36 8.0 14.5 0.00 0.00 0.00 46 1008.8
20260507075815 2 36 14.5 14.5 0.00 0.00 0.00 50 1008.9
20260507074813 1 41 0.0 3.2 0.00 0.00 0.00 53 1008.9
20260507073814 1 41 3.2 4.8 0.00 0.00 0.00 53 1009.0
20260507072755 2 41 3.2 4.8 0.00 0.00 0.00 53 1008.9
20260507071754 2 41 1.6 6.4 0.00 0.00 0.00 51 1008.8
20260507070821 2 42 4.8 6.4 0.00 0.00 0.00 53 1008.8
20260507065800 2 42 1.6 4.8 0.00 0.00 0.00 53 1008.7
20260507064739 2 42 0.0 3.2 0.00 0.00 0.00 49 1008.7
20260507063741 2 42 1.6 3.2 0.00 0.00 0.00 49 1008.8
20260507062745 2 42 0.0 3.2 0.00 0.00 0.00 51 1008.9
20260507061750 2 42 0.0 6.4 0.00 0.00 0.00 50 1008.8
20260507060754 2 44 4.8 6.4 0.00 0.00 0.00 50 1008.7
20260507055753 2 44 4.8 6.4 0.00 0.00 0.00 47 1008.6
20260507054756 3 61 3.2 6.4 0.00 0.00 0.00 45 1008.5
20260507053743 4 62 4.8 6.4 0.00 0.00 0.00 44 1008.4
20260507052747 4 61 0.0 4.8 0.00 0.00 0.00 40 1008.4
20260507051747 5 62 0.0 4.8 0.00 0.00 0.00 40 1008.4
20260507050747 5 62 0.0 4.8 0.00 0.00 0.00 39 1008.4
20260507045751 5 62 3.2 8.0 0.00 0.00 0.00 39 1008.5
20260507044752 3 61 0.0 4.8 0.00 0.00 0.00 41 1008.4
20260507043811 5 61 4.8 4.8 0.00 0.00 0.00 42 1008.4
20260507042750 5 61 1.6 6.4 0.00 0.00 0.00 37 1008.3
20260507041753 6 61 3.2 9.7 0.00 0.00 0.00 36 1008.3
20260507040757 6 86 6.4 8.0 0.00 0.00 0.00 35 1008.3
20260507035800 7 90 9.7 12.9 0.00 0.00 0.00 35 1008.3
20260507034743 6 79 0.0 8.0 0.00 0.00 0.00 35 1008.4
20260507033745 7 78 6.4 9.7 0.00 0.00 0.00 35 1008.4
20260507032744 7 82 4.8 8.0 0.00 0.00 0.00 35 1008.5
20260507031808 7 82 6.4 9.7 0.00 0.00 0.00 34 1008.5
20260507030748 7 69 6.4 9.7 0.00 0.00 0.00 34 1008.6
20260507025747 7 67 3.2 8.0 0.00 0.00 0.00 33 1008.5
20260507024747 8 9 0.0 6.4 0.00 0.00 0.00 33 1008.6
20260507023747 8 9 3.2 8.0 0.00 0.00 0.00 31 1008.6
20260507022750 9 9 4.8 9.7 0.00 0.00 0.00 30 1008.7
20260507021815 9 9 3.2 4.8 0.00 0.00 0.00 31 1008.7
20260507020754 10 9 1.6 4.8 0.00 0.00 0.00 30 1008.9
20260507015818 10 9 1.6 6.4 0.00 0.00 0.00 29 1008.9
20260507014742 11 9 3.2 8.0 0.00 0.00 0.00 28 1009.1
20260507013742 12 315 0.0 4.8 0.00 0.00 0.00 27 1009.2
20260507012744 12 315 1.6 1.6 0.00 0.00 0.00 29 1009.2
20260507011747 13 315 0.0 1.6 0.00 0.00 0.00 25 1009.2
20260507010747 13 315 0.0 3.2 0.00 0.00 0.00 24 1009.3
20260507005811 13 315 4.8 11.3 0.00 0.00 0.00 27 1009.4
20260507004751 14 310 4.8 8.0 0.00 0.00 0.00 26 1009.5
20260507003752 14 317 3.2 8.0 0.00 0.00 0.00 23 1009.6
20260507002813 13 317 8.0 14.5 0.00 0.00 0.00 23 1009.6
20260507001752 13 336 1.6 14.5 0.00 0.00 0.00 24 1009.8
20260507000757 13 312 6.4 19.3 0.00 0.00 0.00 25 1009.9
20260506235756 13 320 0.0 11.3 0.00 0.00 0.00 25 1009.9
20260506234757 13 305 0.0 12.9 0.00 0.00 0.00 25 1009.9
20260506233758 13 294 12.9 12.9 0.00 0.00 0.00 25 1009.9
20260506232741 13 273 4.8 19.3 0.00 0.00 0.00 25 1010.0
20260506231744 13 306 14.5 20.9 0.00 0.00 0.00 26 1010.1
20260506230750 13 281 11.3 24.1 0.00 0.00 0.00 25 1010.3
20260506225750 13 246 4.8 19.3 0.00 0.00 0.00 26 1010.4
20260506224755 13 264 16.1 20.9 0.00 0.00 0.00 24 1010.4
20260506223755 13 250 19.3 29.0 0.00 0.00 0.00 25 1010.6
20260506222756 13 252 12.9 19.3 0.00 0.00 0.00 24 1010.7
20260506221756 13 230 4.8 19.3 0.00 0.00 0.00 25 1011.1
20260506220755 12 151 3.2 19.3 0.00 0.00 0.00 25 1011.0
20260506215742 13 171 14.5 17.7 0.00 0.00 0.00 25 1011.3
20260506214742 13 259 19.3 29.0 0.00 0.00 0.00 26 1011.4
20260506213742 12 258 9.7 17.7 0.00 0.00 0.00 26 1011.5
20260506212743 13 242 9.7 22.5 0.00 0.00 0.00 27 1011.7
20260506211748 12 254 25.7 25.7 0.00 0.00 0.00 26 1011.7
20260506210751 12 235 1.6 25.7 0.00 0.00 0.00 27 1011.9
20260506205756 12 156 8.0 12.9 0.00 0.00 0.00 27 1012.2
20260506204817 12 219 14.5 19.3 0.00 0.00 0.00 26 1012.5
20260506203743 12 213 6.4 25.7 0.00 0.00 0.00 26 1012.5
20260506202740 12 175 9.7 27.4 0.00 0.00 0.00 26 1012.6
20260506201741 11 175 9.7 24.1 0.00 0.00 0.00 26 1012.8
20260506200741 11 252 24.1 27.4 0.00 0.00 0.00 27 1012.9
20260506195746 11 197 9.7 27.4 0.00 0.00 0.00 26 1013.1
20260506194750 11 252 8.0 22.5 0.00 0.00 0.00 28 1013.2
20260506193752 12 178 22.5 22.5 0.00 0.00 0.00 29 1013.5
20260506192752 11 251 14.5 22.5 0.00 0.00 0.00 27 1013.7
20260506191752 10 296 11.3 25.7 0.00 0.00 0.00 33 1012.9
20260506190753 10 278 4.8 20.9 0.00 0.00 0.00 29 1012.9
20260506185759 10 257 4.8 24.1 0.00 0.00 0.00 29 1013.2
20260506184759 10 258 17.7 17.7 0.00 0.00 0.00 29 1013.3
20260506183800 10 319 6.4 16.1 0.00 0.00 0.00 29 1013.4
20260506182741 10 238 8.0 17.7 0.00 0.00 0.00 30 1013.7
20260506181745 10 236 4.8 20.9 0.00 0.00 0.00 29 1014.0
20260506180807 10 269 8.0 8.0 0.00 0.00 0.00 30 1014.3
20260506175746 9 240 3.2 16.1 0.00 0.00 0.00 29 1014.7